This is the latest recevied weather packets stored in our database for station/object VK6WB. If no packets are shown the sender has not sent any weather packets the latest 10 day(s).
| Time | Temp. | Humidity | Pressure | Rain* | Wind** | Luminosity | Snow |
|---|---|---|---|---|---|---|---|
| 1777052405 | 11.67° C | 10% | 1016.1 hPa | 0 mm | - | 373 W/m² | - |
| 1777051805 | 11.67° C | 10% | 1016.1 hPa | 0 mm | - | 373 W/m² | - |
| 1777051205 | 11.11° C | 10% | 1015.9 hPa | 0 mm | - | 373 W/m² | - |
| 1777050605 | 11.67° C | 10% | 1015.9 hPa | 0 mm | - | 373 W/m² | - |
| 1777050006 | 11.67° C | 10% | 1015.8 hPa | 0 mm | - | 373 W/m² | - |
| 1777049405 | 12.22° C | 10% | 1015.7 hPa | 0 mm | - | 373 W/m² | - |
| 1777048805 | 12.22° C | 10% | 1015.6 hPa | 0 mm | - | 373 W/m² | - |
| 1777048205 | 12.78° C | 10% | 1015.6 hPa | 0 mm | - | 373 W/m² | - |
| 1777047605 | 12.78° C | 10% | 1015.7 hPa | 0 mm | - | 373 W/m² | - |
| 1777047005 | 12.78° C | 13% | 1015.6 hPa | 0 mm | - | 373 W/m² | - |
| 1777046406 | 12.78° C | 17% | 1015.5 hPa | 0 mm | - | 373 W/m² | - |
| 1777045805 | 12.78° C | 19% | 1015.5 hPa | 0 mm | - | 373 W/m² | - |
| 1777045204 | 13.33° C | 22% | 1015.6 hPa | 0 mm | - | 373 W/m² | - |
| 1777044605 | 13.33° C | 25% | 1015.8 hPa | 0 mm | - | 373 W/m² | - |
| 1777044005 | 13.33° C | 28% | 1015.7 hPa | 0 mm | - | 373 W/m² | - |
| 1777043406 | 13.33° C | 30% | 1015.8 hPa | 0 mm | - | 373 W/m² | - |
| 1777042805 | 13.33° C | 32% | 1015.8 hPa | 0 mm | - | 373 W/m² | - |
| 1777042205 | 13.33° C | 34% | 1015.7 hPa | 0 mm | - | 373 W/m² | - |
| 1777041605 | 13.89° C | 34% | 1015.9 hPa | 0 mm | - | 373 W/m² | - |
| 1777041005 | 13.89° C | 34% | 1016 hPa | 0 mm | - | 373 W/m² | - |
| 1777040405 | 14.44° C | 36% | 1015.8 hPa | 0 mm | - | 373 W/m² | - |
| 1777039805 | 14.44° C | 37% | 1015.9 hPa | 0 mm | - | 373 W/m² | - |
| 1777039205 | 14.44° C | 39% | 1016.2 hPa | 0 mm | - | 373 W/m² | - |
| 1777038605 | 14.44° C | 41% | 1016.3 hPa | 0 mm | - | 373 W/m² | - |
| 1777038005 | 14.44° C | 43% | 1016.3 hPa | 0 mm | - | 373 W/m² | - |
* Rain latest hour (hover to see other rain measurements)
** Current wind speed in m/s (hover to see current wind gust speed)